Showing default

YAOGAN 25A, 40338

Orbit data source: Space-Track

YAOGAN 25A, 40338 is a payload satellite owned by PLA GAD (CN) in LEO that was launched on Wed, 10 Dec 2014 UTC via a CHANG ZHENG 4C launch vehicle from the Jiuquan Satellite Launch Center, China (JSC). Payload-class satellites include a variety of spacecraft equipped with specific instruments for various scientific and technological missions. These include communications satellites like Starlink; space stations such as the ISS; scientific satellites like the Hubble; Earth observation satellites from companies like Planet Labs, Umbra, and HawkEye 360; GPS; miniature CubeSats for education and research; and military/defense satellites.

Loading next visibility...
Identifier
40338, 2014-080A
Orbit
LEO
Country
Flag of CNCN / PRC
Related business
Manufacturer
CAST
Mission
Operational Defense Sigint
Bus & Motor
JB-8, Unknown motor
Mass
~500 kg wet, ~500 kg dry
Launch date (UTC)
2014-12-10 (11 years ago)
Launch vehicle
CHANG ZHENG 4C
Launch site
Jiuquan Satellite Launch Center, China (JSC)
Object type
Payload
Rocket body
Debris
Shape & HBR
Box + 2 Pan, 0.5 m
Radar Cross Section
0.446 m², Large (>1 m²)

Expand to show TLE details & history
Last TLE update: 7 hours ago

TLE from 7 hours ago
0 YAOGAN 25A
1 40338U 14080A   26062.51426883 -.00000023  00000-0  77560-4 0  9999
2 40338  63.3858 223.0289 0357349   8.6444 352.0520 13.45404606551445
Epoch: 2026-03-03T12:20Z
TLE epoch observation values (Epoch: 2026-03-03T12:20:32.826Z)
Latitude
0.00001°
Longitude
-123.40011°
Altitude
826.867 km
Speed
7.57 km/s
True Right ascension
14h 52m 06s
True Declination
0° 00' 00"
Sunlit
Object was in full shadow at epoch
Visualization orbit readout
Latitude
Unknown
Longitude
Unknown
Altitude
Unknown
Speed
Unknown
Apparent Right ascension
Unknown
Apparent Declination
Unknown
Sunlit
N/A
Visualization observer readout
Local Sidereal Time
22:58:00
Azimuth
Unknown
Elevation
Unknown
Doppler factor
Unknown
Orbital elements
Apogee altitude
1,354.846 km
Perigee altitude
821.24 km
Semi-major axis
7,466.18 km
Eccentricity
0.03573
Inclination
63.3858°
RAAN
223.0289°
Arg. of periapsis
8.6444°
True anomaly
351.45963°
Mean anomaly
352.052°
Eccentric anomaly
351.75851°
Mean motion
3.36431 °/min
Orbital period
107.01 mins
BSTAR
0.00007756
Loading maneuver chart data...
Computing Atmospheric mass density...
Loading historical data...
Loading historical data...
Loading historical data...
Loading historical data...
Loading historical data...
Loading historical data...
Loading historical data...

Documentation

Showing up to 5 results
|